Location: Natural Bridges National Monument
(37.6093°N, 109.9767°W)
Time: 19:32:37
(UTC-06:00)

USA 32 - Visible Passes

Search period start: 03 September 2015 00:00
Search period end: 13 September 2015 00:00
Orbit: 779 x 782 km, 85.0° (Epoch: 14 August)

Date Brightness Start Highest point End Pass type
(mag) Time Alt. Az. Time Alt. Az. Time Alt. Az.
03 Sep 6.0 05:26:18 10° NNE 05:30:53 31° ENE 05:35:32 10° SE visible
04 Sep 6.9 04:54:32 10° NNE 04:57:52 17° ENE 05:01:23 10° ESE visible
05 Sep 4.1 06:01:16 10° N 06:06:34 89° WSW 06:11:48 10° S visible
06 Sep 5.0 05:28:42 10° N 05:33:48 50° E 05:38:53 10° SSE visible
07 Sep 6.1 04:56:29 10° NNE 05:00:53 28° ENE 05:05:24 10° SE visible
08 Sep 6.9 04:24:53 10° NE 04:27:50 16° ENE 04:31:02 10° ESE visible
08 Sep 4.1 06:04:09 10° NNW 06:09:17 55° W 06:14:22 10° SSW visible
09 Sep 4.1 05:31:20 10° N 05:36:37 82° E 05:41:52 10° S visible
10 Sep 5.1 04:58:49 10° N 05:03:50 44° E 05:08:50 10° SSE visible
11 Sep 6.2 04:26:41 10° NNE 04:30:54 25° ENE 04:35:13 10° SE visible
11 Sep 4.7 06:07:15 10° NNW 06:11:57 33° W 06:16:34 10° SSW visible
12 Sep 6.9 03:55:18 10° NE 03:57:49 14° ENE 04:00:36 10° ESE visible
12 Sep 4.0 05:34:10 10° NNW 05:39:21 61° W 05:44:30 10° S visible
